UAE7TR OMDB-EGKK

Flight info

Callsign UAE7TR
Flight time N/A
Altitude 39000
Route ANVIX R401 GIDIS G783 VAVIM DCT DEBAV/N0495F380 G652 TOKRA DCT MEDPO DCT SITUK M321 IVONU Z710 GAS G662 HIL T540 NOLPI/N0494F400 T540 ENABI L550 NOVPA J981 DATOK L550 GENIV L324 LAKTO DCT OTHON DCT VAXOS DCT RDS UL609 MES DCT DISOR DCT LONTA UL608 DOLEV DCT GORPA DCT MODSA DCT MAH DCT NOMBO DCT VIBOM DCT ULNOK DCT ADENU DCT LIRSU DCT ARCKY DCT SPI DCT DENUT L610 TEBRA
Aircraft A359/H-SDE2E3GHIJ1J3J4J5LM1ORWXY/LB1D1

Departure

Time 2026-04-30 09:24
Airport Dubai International Airport (OMDB)

Arrival

Time N/A
Airport London Gatwick Airport (EGKK)
Time Latitude Longitude Altitude Speed Heading
2026-04-30 08:13 25.24593 55.36426 27 ft 0 kts 31°
2026-04-30 09:03 25.24592 55.36425 27 ft 1 kts 31°
2026-04-30 09:03 25.24584 55.36420 26 ft 2 kts 32°
2026-04-30 09:03 25.24569 55.36409 26 ft 3 kts 33°
2026-04-30 09:04 25.24553 55.36394 27 ft 3 kts 54°
2026-04-30 09:04 25.24544 55.36374 26 ft 3 kts 76°
2026-04-30 09:04 25.24541 55.36352 26 ft 3 kts 97°
2026-04-30 09:04 25.24546 55.36330 25 ft 3 kts 117°
2026-04-30 09:05 25.24552 55.36319 25 ft 3 kts 120°
2026-04-30 09:05 25.24561 55.36302 26 ft 3 kts 120°
2026-04-30 09:05 25.24569 55.36285 25 ft 2 kts 120°
2026-04-30 09:05 25.24578 55.36269 26 ft 2 kts 120°
2026-04-30 09:06 25.24586 55.36252 25 ft 2 kts 120°
2026-04-30 09:06 25.24590 55.36246 24 ft 0 kts 120°
2026-04-30 09:10 25.24582 55.36261 27 ft 4 kts 119°
2026-04-30 09:10 25.24566 55.36294 27 ft 6 kts 118°
2026-04-30 09:10 25.24544 55.36338 27 ft 7 kts 118°
2026-04-30 09:11 25.24515 55.36390 27 ft 9 kts 122°
2026-04-30 09:11 25.24482 55.36451 27 ft 10 kts 121°
2026-04-30 09:11 25.24454 55.36524 27 ft 11 kts 101°
2026-04-30 09:11 25.24463 55.36610 27 ft 12 kts 69°
2026-04-30 09:12 25.24518 55.36679 27 ft 13 kts 36°
2026-04-30 09:12 25.24593 55.36732 27 ft 12 kts 31°
2026-04-30 09:12 25.24665 55.36780 28 ft 12 kts 30°
2026-04-30 09:12 25.24722 55.36818 28 ft 7 kts 37°
2026-04-30 09:13 25.24736 55.36865 28 ft 6 kts 96°
2026-04-30 09:13 25.24716 55.36913 27 ft 8 kts 120°
2026-04-30 09:13 25.24687 55.36969 28 ft 9 kts 121°
2026-04-30 09:13 25.24651 55.37032 28 ft 10 kts 122°
2026-04-30 09:14 25.24610 55.37105 28 ft 12 kts 122°
2026-04-30 09:14 25.24564 55.37188 28 ft 13 kts 122°
2026-04-30 09:14 25.24513 55.37278 28 ft 14 kts 122°
2026-04-30 09:14 25.24459 55.37376 28 ft 16 kts 120°
2026-04-30 09:15 25.24430 55.37494 28 ft 16 kts 93°
2026-04-30 09:15 25.24424 55.37590 28 ft 12 kts 99°
2026-04-30 09:15 25.24392 55.37674 29 ft 12 kts 118°
2026-04-30 09:15 25.24389 55.37733 29 ft 5 kts 59°
2026-04-30 09:16 25.24395 55.37740 30 ft 0 kts 49°
2026-04-30 09:16 25.24403 55.37749 30 ft 8 kts 43°
2026-04-30 09:17 25.24445 55.37785 33 ft 6 kts 36°
2026-04-30 09:17 25.24474 55.37807 33 ft 4 kts 34°
2026-04-30 09:17 25.24495 55.37823 35 ft 4 kts 34°
2026-04-30 09:17 25.24523 55.37844 35 ft 7 kts 34°
2026-04-30 09:18 25.24570 55.37878 34 ft 10 kts 33°
2026-04-30 09:18 25.24627 55.37935 31 ft 10 kts 69°
2026-04-30 09:18 25.24610 55.38008 31 ft 9 kts 121°
2026-04-30 09:18 25.24603 55.38022 31 ft 0 kts 122°
2026-04-30 09:20 25.24602 55.38023 31 ft 2 kts 122°
2026-04-30 09:20 25.24577 55.38068 31 ft 9 kts 122°
2026-04-30 09:20 25.24564 55.38131 30 ft 7 kts 69°
2026-04-30 09:20 25.24576 55.38145 30 ft 0 kts 43°
2026-04-30 09:21 25.24590 55.38158 30 ft 9 kts 40°
2026-04-30 09:21 25.24648 55.38201 30 ft 10 kts 31°
2026-04-30 09:22 25.24700 55.38205 31 ft 6 kts 329°
2026-04-30 09:22 25.24723 55.38176 32 ft 4 kts 304°
2026-04-30 09:22 25.24725 55.38172 33 ft 0 kts 304°
2026-04-30 09:23 25.24767 55.38102 37 ft 34 kts 302°
2026-04-30 09:24 25.25002 55.37675 37 ft 95 kts 302°
2026-04-30 09:24 25.25446 55.36874 36 ft 148 kts 301°
2026-04-30 09:24 25.26042 55.35798 307 ft 170 kts 302°
2026-04-30 09:24 25.26634 55.34711 1059 ft 161 kts 302°
2026-04-30 09:25 25.27224 55.33625 1610 ft 169 kts 304°
2026-04-30 09:25 25.27876 55.32475 1937 ft 187 kts 304°
2026-04-30 09:25 25.28609 55.31175 2300 ft 208 kts 303°
2026-04-30 09:25 25.29181 55.29659 2855 ft 221 kts 282°
2026-04-30 09:26 25.28991 55.27971 3516 ft 226 kts 254°
2026-04-30 09:26 25.28347 55.26373 3889 ft 229 kts 248°
2026-04-30 09:26 25.27641 55.24773 3989 ft 232 kts 248°
2026-04-30 09:26 25.26928 55.23168 4000 ft 234 kts 248°
2026-04-30 09:27 25.26224 55.21563 4041 ft 233 kts 248°
2026-04-30 09:27 25.25519 55.19925 4383 ft 237 kts 248°
2026-04-30 09:27 25.24743 55.18295 4978 ft 241 kts 238°
2026-04-30 09:27 25.23500 55.17052 5619 ft 248 kts 211°
2026-04-30 09:28 25.21797 55.16643 6155 ft 259 kts 180°
2026-04-30 09:28 25.20001 55.16848 6741 ft 265 kts 168°
2026-04-30 09:28 25.18350 55.17776 7352 ft 271 kts 140°
2026-04-30 09:28 25.17181 55.19505 7692 ft 289 kts 120°
2026-04-30 09:29 25.16261 55.21503 8188 ft 299 kts 118°
2026-04-30 09:29 25.15322 55.23576 8823 ft 304 kts 119°
2026-04-30 09:29 25.14353 55.25660 9453 ft 310 kts 120°
2026-04-30 09:29 25.13340 55.27807 10083 ft 314 kts 121°
2026-04-30 09:30 25.12329 55.29931 10735 ft 317 kts 121°
2026-04-30 09:30 25.11287 55.32101 11387 ft 319 kts 121°
2026-04-30 09:30 25.10257 55.34270 12033 ft 324 kts 119°